timestamp,surface_pressure_avg,surface_temp_avg,battery_voltage,lat,long
2021-09-13 00:09:01+00:00,240.9714,17.7,12.73,47.84626,-54.09684
2021-09-13 00:19:01+00:00,243.3964,17.7,12.73,47.84626,-54.09684
2021-09-13 00:29:01+00:00,247.5631,17.7,12.73,47.84626,-54.09684
2021-09-13 00:39:01+00:00,248.5381,17.7,12.73,47.84626,-54.09684
2021-09-13 00:49:01+00:00,247.1531,17.7,12.73,47.84626,-54.09684
2021-09-13 00:59:01+00:00,251.2864,17.7,12.73,47.84626,-54.09684
2021-09-13 01:09:01+00:00,257.7497,17.7,12.73,47.84626,-54.09684
2021-09-13 01:19:01+00:00,261.6397,17.7,12.73,47.84626,-54.09684
2021-09-13 01:29:01+00:00,264.7598,17.69,12.73,47.84626,-54.09684
2021-09-13 01:39:01+00:00,274.2797,17.69,12.73,47.84626,-54.09684
2021-09-13 01:49:01+00:00,282.7747,17.61,12.73,47.84626,-54.09684
2021-09-13 01:59:01+00:00,285.9963,17.65,12.73,47.84626,-54.09684
2021-09-13 02:09:01+00:00,289.3713,17.67,12.73,47.84626,-54.09684
2021-09-13 02:19:01+00:00,299.6647,17.64,12.73,47.84626,-54.09684
2021-09-13 02:29:01+00:00,304.7813,17.66,12.73,47.84626,-54.09684
2021-09-13 02:39:01+00:00,303.7363,17.68,12.73,47.84626,-54.09684
2021-09-13 02:49:01+00:00,306.2247,17.68,12.73,47.84626,-54.09684
2021-09-13 02:59:01+00:00,313.263,17.63,12.73,47.84626,-54.09684
2021-09-13 03:09:01+00:00,315.573,17.65,12.73,47.84626,-54.09684
2021-09-13 03:19:01+00:00,316.883,17.68,12.73,47.84626,-54.09684
2021-09-13 03:29:01+00:00,323.5129,17.68,12.73,47.84626,-54.09684
2021-09-13 03:39:01+00:00,328.3246,17.65,12.73,47.84626,-54.09684
2021-09-13 03:49:01+00:00,329.4163,17.65,12.73,47.84626,-54.09684
2021-09-13 03:59:01+00:00,331.2913,17.69,12.73,47.84626,-54.09684
2021-09-13 04:09:01+00:00,337.2812,17.69,12.73,47.84626,-54.09684
2021-09-13 04:19:00+00:00,339.2263,17.66,12.73,47.84626,-54.09684
2021-09-13 04:29:00+00:00,336.4163,17.69,12.73,47.84626,-54.09684
2021-09-13 04:39:00+00:00,338.1263,17.7,12.73,47.84626,-54.09684
2021-09-13 04:49:00+00:00,338.6946,17.7,12.73,47.84626,-54.09684
2021-09-13 04:59:00+00:00,335.4662,17.7,12.73,47.84626,-54.09684
2021-09-13 05:09:00+00:00,332.168,17.7,12.73,47.84626,-54.09684
2021-09-13 05:19:01+00:00,332.0363,17.7,12.73,47.84626,-54.09684
2021-09-13 05:29:01+00:00,329.0729,17.7,12.73,47.84626,-54.09684
2021-09-13 05:39:01+00:00,324.7514,17.7,12.73,47.84626,-54.09684
2021-09-13 05:49:01+00:00,323.2247,17.7,12.73,47.84626,-54.09684
2021-09-13 05:59:01+00:00,317.0597,17.7,12.73,47.84626,-54.09684
2021-09-13 06:09:01+00:00,306.9713,17.7,12.73,47.84626,-54.09684
2021-09-13 06:19:00+00:00,299.4431,17.69,12.73,47.84626,-54.09684
2021-09-13 06:29:00+00:00,293.3447,17.7,12.73,47.84626,-54.09684
2021-09-13 06:39:00+00:00,283.5031,17.7,12.73,47.84626,-54.09684
2021-09-13 06:49:00+00:00,271.188,17.7,12.73,47.84626,-54.09684
2021-09-13 06:59:00+00:00,261.7614,17.7,12.73,47.84626,-54.09684
2021-09-13 07:09:00+00:00,252.2231,17.6,12.73,47.84626,-54.09684
2021-09-13 07:19:01+00:00,241.4047,17.6,12.65,47.84626,-54.09684
2021-09-13 07:29:01+00:00,234.3614,17.6,12.65,47.84626,-54.09684
2021-09-13 07:39:01+00:00,227.8114,17.6,12.65,47.84626,-54.09684
2021-09-13 07:49:01+00:00,217.4348,17.65,12.65,47.84626,-54.09684
2021-09-13 07:59:01+00:00,207.2331,17.6,12.65,47.84626,-54.09684
2021-09-13 08:09:01+00:00,202.2365,17.66,12.65,47.84626,-54.09684
2021-09-13 08:19:01+00:00,198.2664,17.66,12.65,47.84626,-54.09684
2021-09-13 08:29:01+00:00,191.1248,17.66,12.65,47.84626,-54.09684
2021-09-13 08:39:01+00:00,188.7448,17.62,12.65,47.84626,-54.09684
2021-09-13 08:49:01+00:00,190.3698,17.6,12.65,47.84626,-54.09684
2021-09-13 08:59:01+00:00,186.0181,17.6,12.65,47.84626,-54.09684
2021-09-13 09:09:01+00:00,180.7398,17.6,12.65,47.84626,-54.09684
2021-09-13 09:19:01+00:00,183.4982,17.6,12.65,47.84626,-54.09684
2021-09-13 09:29:01+00:00,186.4498,17.6,12.65,47.84626,-54.09684
2021-09-13 09:39:01+00:00,183.4114,17.6,12.65,47.84626,-54.09684
2021-09-13 09:49:01+00:00,185.9364,17.6,12.65,47.84626,-54.09684
2021-09-13 09:59:01+00:00,192.5165,17.6,12.65,47.84626,-54.09684
2021-09-13 10:09:01+00:00,195.7031,17.6,12.65,47.84626,-54.09684
2021-09-13 10:19:01+00:00,199.7231,17.6,12.65,47.84626,-54.09684
2021-09-13 10:29:01+00:00,207.4514,17.6,12.65,47.84626,-54.09684
2021-09-13 10:39:01+00:00,216.7581,17.6,12.65,47.84626,-54.09684
2021-09-13 10:49:01+00:00,221.4014,17.6,12.65,47.84626,-54.09684
2021-09-13 10:59:01+00:00,223.7848,17.6,12.65,47.84626,-54.09684
2021-09-13 11:09:01+00:00,230.2598,17.6,12.65,47.84626,-54.09684
2021-09-13 11:19:01+00:00,233.7531,17.55,12.81,47.84626,-54.09684
2021-09-13 11:29:01+00:00,229.5614,17.59,12.81,47.84626,-54.09684
2021-09-13 11:39:01+00:00,227.4164,17.59,12.81,47.84626,-54.09684
2021-09-13 11:49:01+00:00,231.6514,17.59,12.81,47.84626,-54.09684
2021-09-13 11:59:01+00:00,232.2431,17.53,12.81,47.84626,-54.09684
2021-09-13 12:09:01+00:00,231.6981,17.5,12.81,47.84626,-54.09684
2021-09-13 12:19:01+00:00,232.4265,17.6,14.24,47.84626,-54.09684
2021-09-13 12:29:01+00:00,235.5697,17.63,14.24,47.84626,-54.09684
2021-09-13 12:39:01+00:00,236.5381,17.63,14.24,47.84626,-54.09684
2021-09-13 12:49:01+00:00,236.9498,17.66,14.24,47.84626,-54.09684
2021-09-13 12:59:01+00:00,237.1364,17.69,14.24,47.84626,-54.09684
2021-09-13 13:09:01+00:00,239.0598,17.7,14.24,47.84626,-54.09684
2021-09-13 13:19:01+00:00,243.3714,17.73,14.48,47.84626,-54.09684
2021-09-13 13:29:01+00:00,249.1297,17.8,14.48,47.84626,-54.09684
2021-09-13 13:39:01+00:00,253.2964,17.7,14.48,47.84626,-54.09684
2021-09-13 13:49:01+00:00,259.238,17.62,14.48,47.84626,-54.09684
2021-09-13 13:59:01+00:00,269.1181,17.7,14.48,47.84626,-54.09684
2021-09-13 14:09:01+00:00,279.7614,17.65,14.48,47.84626,-54.09684
2021-09-13 14:19:01+00:00,285.6414,17.6,14.4,47.84626,-54.09684
2021-09-13 14:29:01+00:00,293.8047,17.5,14.4,47.84626,-54.09684
2021-09-13 14:39:01+00:00,304.4097,17.5,14.4,47.84626,-54.09684
2021-09-13 14:49:01+00:00,309.8914,17.5,14.4,47.84626,-54.09684
2021-09-13 14:59:01+00:00,313.4263,17.47,14.4,47.84626,-54.09684
2021-09-13 15:09:01+00:00,322.0563,17.4,14.4,47.84626,-54.09684
2021-09-13 15:19:01+00:00,330.8846,17.4,14.32,47.84626,-54.09684
2021-09-13 15:29:01+00:00,336.713,17.4,14.32,47.84626,-54.09684
2021-09-13 15:39:01+00:00,340.5729,17.4,14.32,47.84626,-54.09684
2021-09-13 15:49:01+00:00,344.3463,17.4,14.32,47.84626,-54.09684
2021-09-13 15:59:01+00:00,351.2397,17.38,14.32,47.84626,-54.09684
2021-09-13 16:09:01+00:00,354.2245,17.35,14.32,47.84626,-54.09684
2021-09-13 16:19:01+00:00,351.1813,17.33,14.24,47.84626,-54.09684
2021-09-13 16:29:01+00:00,354.8313,17.3,14.24,47.84626,-54.09684
2021-09-13 16:39:01+00:00,360.8729,17.11,14.24,47.84626,-54.09684
2021-09-13 16:49:01+00:00,359.0397,17.19,14.24,47.84626,-54.09684
2021-09-13 16:59:01+00:00,356.7496,17.19,14.24,47.84626,-54.09684
2021-09-13 17:09:01+00:00,359.3646,17.1,14.24,47.84626,-54.09684
2021-09-13 17:19:01+00:00,359.49300000000005,17.1,14.16,47.84626,-54.09684
2021-09-13 17:29:01+00:00,354.7979,17.1,14.16,47.84626,-54.09684
2021-09-13 17:39:01+00:00,349.6331,17.2,14.16,47.84626,-54.09684
2021-09-13 17:49:01+00:00,348.6646,17.2,14.16,47.84626,-54.09684
2021-09-13 17:59:01+00:00,346.8129,17.24,14.16,47.84626,-54.09684
2021-09-13 18:09:01+00:00,341.5962,17.2,14.16,47.84626,-54.09684
2021-09-13 18:19:01+00:00,337.6097,17.21,13.92,47.84626,-54.09684
2021-09-13 18:29:01+00:00,336.9263,17.27,13.92,47.84626,-54.09684
2021-09-13 18:39:01+00:00,331.3262,17.69,13.92,47.84626,-54.09684
2021-09-13 18:49:01+00:00,320.1863,17.8,13.92,47.84626,-54.09684
2021-09-13 18:59:01+00:00,313.8779,17.73,13.92,47.84626,-54.09684
2021-09-13 19:09:01+00:00,308.5496,17.83,13.92,47.84626,-54.09684
2021-09-13 19:19:01+00:00,297.9313,17.88,13.68,47.84626,-54.09684
2021-09-13 19:29:01+00:00,287.9814,17.7,13.68,47.84626,-54.09684
2021-09-13 19:39:01+00:00,284.2814,17.76,13.68,47.84626,-54.09684
2021-09-13 19:49:01+00:00,279.8647,17.8,13.68,47.84626,-54.09684
2021-09-13 19:59:01+00:00,267.3964,17.8,13.68,47.84626,-54.09684
2021-09-13 20:09:01+00:00,259.4297,17.72,13.68,47.84626,-54.09684
2021-09-13 20:19:01+00:00,255.3564,17.78,13.37,47.84626,-54.09684
2021-09-13 20:29:01+00:00,248.9497,17.78,13.37,47.84626,-54.09684
2021-09-13 20:39:01+00:00,238.0048,17.75,13.37,47.84626,-54.09684
2021-09-13 20:49:01+00:00,232.2765,17.79,13.37,47.84626,-54.09684
2021-09-13 20:59:01+00:00,226.4131,17.8,13.37,47.84626,-54.09684
2021-09-13 21:09:01+00:00,220.8148,17.79,13.37,47.84626,-54.09684
2021-09-13 21:19:01+00:00,219.3698,17.73,13.05,47.84626,-54.09684
2021-09-13 21:29:01+00:00,218.5114,17.7,13.05,47.84626,-54.09684
2021-09-13 21:39:01+00:00,215.1815,17.7,13.05,47.84626,-54.09684
2021-09-13 21:49:01+00:00,213.8348,17.67,13.05,47.84626,-54.09684
2021-09-13 21:59:01+00:00,216.2331,17.69,13.05,47.84626,-54.09684
2021-09-13 22:09:01+00:00,219.6848,17.7,13.05,47.84626,-54.09684
2021-09-13 22:19:01+00:00,221.1698,17.7,12.81,47.84626,-54.09684
2021-09-13 22:29:01+00:00,222.6531,17.7,12.81,47.84626,-54.09684
2021-09-13 22:39:01+00:00,223.9397,17.67,12.81,47.84626,-54.09684
2021-09-13 22:49:01+00:00,227.2131,17.61,12.81,47.84626,-54.09684
2021-09-13 22:59:01+00:00,233.1614,17.69,12.81,47.84626,-54.09684
2021-09-13 23:09:01+00:00,238.7348,17.6,12.81,47.84626,-54.09684
2021-09-13 23:19:01+00:00,239.7148,17.6,12.73,47.84626,-54.09684
2021-09-13 23:29:01+00:00,242.0848,17.55,12.73,47.84626,-54.09684
2021-09-13 23:39:01+00:00,245.328,17.52,12.73,47.84626,-54.09684
2021-09-13 23:49:01+00:00,242.8181,17.56,12.73,47.84626,-54.09684
2021-09-13 23:59:01+00:00,238.7931,17.59,12.73,47.84626,-54.09684
